Weather History for Lawrence, KS

Change the Weather History Date:

Monday, July 1, 2013

  Actual Average Record
Temperature  
Mean Temperature 71 °F 77 °F  
Max Temperature 84 °F 88 °F 100 °F (2012)
Min Temperature 57 °F 66 °F 57 °F (2008)
Degree Days  
Heating Degree Days 0 0  
Month to date heating degree days 0 0  
Since 1 June heating degree days 13 8  
Since 1 July heating degree days 0 0  
Cooling Degree Days 6 12  
Month to date cooling degree days 6 12  
Year to date cooling degree days 445 406  
Since 1 June cooling degree days 318 287  
Growing Degree Days 20 (Base 50)    
Moisture  
Dew Point 53 °F    
Average Humidity 59    
Maximum Humidity 86    
Minimum Humidity 31    
Precipitation  
Precipitation 0.00 in 0.17 in 0.02 in (2004)
Month to date precipitation 0.00 0.17  
Year to date precipitation 15.66 19.52  
Sea Level Pressure  
Sea Level Pressure 30.08 in    
Wind  
Wind Speed 8 mph (North)    
Max Wind Speed 17 mph    
Max Gust Speed 23 mph    
Visibility 9 miles    
Events      
T = Trace of Precipitation, MM = Missing Value Source: NWS Daily Summary

Daily Weather History Graph

Daily Weather History Graph

Search for Another Location

Airport:

Trip Planner

Search our weather history database for the weather conditions in past years. The results will help you decide how hot, cold, wet, or windy it might be!

Date:

Astronomy

Jul. 01, 2013 Rise Set
Actual Time 5:59 AM CDT 8:50 PM CDT
Civil Twilight 5:27 AM CDT 9:22 PM CDT
Nautical Twilight 4:46 AM CDT 10:02 PM CDT
Astronomical Twilight 4:00 AM CDT 10:48 PM CDT
Moon 1:27 AM CDT (7/1) 3:08 PM CDT (7/1)
Length of Visible Light 15h 55m
Length of Day
14h 51m
Waning Crescent, 35% of the Moon is Illuminated
Jul 1
Waning Crescent
Jul 8
New
Jul 15
First Quarter
Jul 22
Full
Jul 29
Last Quarter

Hourly Weather History & Observations

Time (CDT) Temp. Dew Point Humidity Pressure Visibility Wind Dir Wind Speed Gust Speed Precip Events Conditions
12:52 AM 60.1 °F 54.0 °F 80% 30.05 in 10.0 mi North 4.6 mph - N/A   Clear
1:52 AM 60.1 °F 54.0 °F 80% 30.05 in 10.0 mi NNW 3.5 mph - N/A   Clear
2:52 AM 64.0 °F 54.0 °F 70% 30.05 in 10.0 mi North 6.9 mph - N/A   Clear
3:52 AM 57.9 °F 54.0 °F 87% 30.06 in 10.0 mi WNW 6.9 mph - N/A   Clear
4:52 AM 57.9 °F 53.1 °F 84% 30.07 in 9.0 mi WNW 9.2 mph - N/A   Clear
5:52 AM 57.0 °F 52.0 °F 83% 30.08 in 8.0 mi WNW 6.9 mph - N/A   Clear
6:52 AM 57.9 °F 52.0 °F 81% 30.09 in 6.0 mi NW 8.1 mph - N/A   Haze
7:52 AM 62.1 °F 55.0 °F 78% 30.11 in 6.0 mi WNW 3.5 mph - N/A   Haze
8:52 AM 71.1 °F 55.0 °F 57% 30.12 in 8.0 mi Variable 4.6 mph - N/A   Clear
9:52 AM 73.9 °F 55.9 °F 53% 30.12 in 9.0 mi North 5.8 mph - N/A   Clear
10:52 AM 78.1 °F 54.0 °F 43% 30.12 in 10.0 mi North 10.4 mph - N/A   Clear
11:52 AM 81.0 °F 51.1 °F 35% 30.12 in 10.0 mi NNE 9.2 mph - N/A   Clear
12:52 PM 81.0 °F 50.0 °F 34% 30.11 in 10.0 mi ENE 13.8 mph 23.0 mph N/A   Clear
1:52 PM 82.0 °F 51.1 °F 34% 30.10 in 10.0 mi NNE 10.4 mph 23.0 mph N/A   Partly Cloudy
2:52 PM 84.0 °F 51.1 °F 32% 30.08 in 10.0 mi NNE 11.5 mph 19.6 mph N/A   Partly Cloudy
3:52 PM 82.9 °F 48.9 °F 31% 30.08 in 10.0 mi NNE 11.5 mph 20.7 mph N/A   Partly Cloudy
4:52 PM 84.0 °F 51.1 °F 32% 30.06 in 10.0 mi NE 15.0 mph 20.7 mph N/A   Scattered Clouds
5:52 PM 82.9 °F 52.0 °F 34% 30.06 in 10.0 mi NNE 8.1 mph - N/A   Partly Cloudy
6:52 PM 80.1 °F 51.1 °F 36% 30.06 in 10.0 mi NNE 11.5 mph - N/A   Clear
7:52 PM 78.1 °F 52.0 °F 40% 30.06 in 10.0 mi NNE 6.9 mph - N/A   Clear
8:52 PM 70.0 °F 55.0 °F 59% 30.06 in 9.0 mi NNE 5.8 mph - N/A   Clear
9:52 PM 64.0 °F 55.0 °F 73% 30.07 in 9.0 mi NNW 3.5 mph - N/A   Clear
10:52 PM 62.1 °F 54.0 °F 75% 30.08 in 8.0 mi NNW 3.5 mph - N/A   Partly Cloudy
11:52 PM 60.1 °F 54.0 °F 80% 30.09 in 10.0 mi NW 3.5 mph - N/A   Clear